GW2235 Weather Reports


time (UTC)temp
C
wind
direction
speed
KPH
gust
KPH
rain 1hr
cm
rain 24hr
cm
rain mn
cm
humidity
%
barometer
mb
20260507020004 7 294 4.8 14.5 0.00 1.12 1.12 92 1012.0
20260507014502 7 343 4.8 11.3 0.00 1.12 1.12 93 1011.9
20260507013002 7 279 3.2 6.4 0.00 1.12 1.12 93 1011.9
20260507011503 7 272 4.8 14.5 0.00 1.12 1.12 93 1011.7
20260507010004 8 322 8.0 22.5 0.00 1.12 1.12 93 1011.6
20260507004502 8 269 6.4 16.1 0.00 1.12 1.12 94 1011.3
20260507003005 8 315 11.3 25.7 0.00 1.12 1.12 94 1011.0
20260507001505 8 343 4.8 19.3 0.00 1.12 1.12 93 1010.9
20260507000006 8 306 9.7 20.9 0.00 1.12 1.12 93 1010.5
20260506234502 8 319 14.5 25.7 0.08 1.12 1.12 93 1010.1
20260506233003 8 320 8.0 22.5 0.08 1.12 1.12 93 1010.1
20260506231459 9 308 9.7 25.7 0.08 1.12 1.12 92 1009.8
20260506230002 9 333 12.9 24.1 0.08 1.12 1.12 91 1009.4
20260506224501 10 302 11.3 20.9 0.00 1.04 1.04 90 1009.1
20260506223002 11 341 12.9 20.9 0.00 1.04 1.04 89 1008.6
20260506221502 12 330 12.9 29.0 0.00 1.04 1.04 86 1008.3
20260506220006 15 236 4.8 17.7 0.00 1.04 1.04 89 1007.7
20260506214502 15 238 3.2 11.3 0.00 1.04 1.04 89 1007.5
20260506213002 15 139 4.8 11.3 0.00 1.04 1.04 89 1007.4
20260506210004 15 133 6.4 14.5 0.00 1.04 1.04 91 1007.0
20260506204501 15 192 6.4 14.5 0.03 1.04 1.04 93 1006.9
20260506203000 15 199 4.8 9.7 0.03 1.04 1.04 94 1006.9
20260506201501 15 167 1.6 11.3 0.03 1.04 1.04 95 1006.9
20260506194508 15 146 0.0 3.2 0.00 1.02 1.02 96 1007.2
20260506193000 14 146 0.0 3.2 0.00 1.02 1.02 96 1007.5
20260506191500 14 146 0.0 0.0 0.00 1.02 1.02 96 1007.6
20260506190004 14 146 1.6 6.4 0.00 1.02 1.02 96 1007.6
20260506184459 14 146 1.6 9.7 0.05 1.02 1.02 96 1007.7
20260506183001 14 159 1.6 11.3 0.05 1.02 1.02 96 1007.6
20260506181459 14 107 1.6 9.7 0.08 1.02 1.02 96 1007.9
20260506174459 14 157 0.0 11.3 0.08 0.97 0.97 95 1007.9
20260506173000 13 175 3.2 9.7 0.08 0.97 0.97 95 1007.9
20260506171502 13 128 3.2 11.3 0.08 0.94 0.94 95 1008.0
20260506170007 13 182 3.2 9.7 0.10 0.94 0.94 95 1007.9
20260506164503 13 145 3.2 16.1 0.05 0.89 0.89 95 1007.7
20260506163003 13 159 4.8 16.1 0.10 0.89 0.89 95 1007.8
20260506160005 13 173 1.6 9.7 0.28 0.84 0.84 95 1008.0
20260506154459 13 183 1.6 11.3 0.36 0.84 0.84 95 1008.1
20260506151502 13 116 1.6 12.9 0.33 0.71 0.71 94 1008.6
20260506150004 14 135 1.6 8.0 0.20 0.53 0.53 94 1008.4
20260506144502 14 173 0.0 11.3 0.20 0.48 0.48 94 1008.4
20260506141502 14 156 1.6 12.9 0.23 0.38 0.38 93 1008.6
20260506140005 14 185 1.6 8.0 0.23 0.33 0.33 93 1008.9
20260506134500 14 185 0.0 9.7 0.23 0.28 0.28 92 1009.0
20260506133002 14 185 0.0 0.0 0.20 0.23 0.23 91 1009.2
20260506131501 14 185 1.6 4.8 0.15 0.15 0.15 90 1009.3
20260506130002 14 185 3.2 12.9 0.10 0.10 0.10 88 1009.5
20260506124500 15 168 1.6 12.9 0.05 0.05 0.05 86 1009.4
20260506123000 15 175 4.8 17.7 0.03 0.03 0.03 83 1009.0
20260506121501 15 195 1.6 14.5 0.00 0.00 0.00 80 1009.1
20260506120005 15 146 4.8 17.7 0.00 0.00 0.00 78 1009.1
20260506114459 15 190 3.2 17.7 0.00 0.00 0.00 76 1009.0
20260506111501 15 155 0.0 8.0 0.00 0.00 0.00 74 1008.6
20260506110003 15 155 0.0 9.7 0.00 0.00 0.00 72 1008.7
20260506104500 15 155 1.6 12.9 0.00 0.00 0.00 72 1008.4
20260506102958 15 205 0.0 6.4 0.00 0.00 0.00 72 1008.0
20260506101501 15 205 0.0 0.0 0.00 0.00 0.00 72 1008.1
20260506100005 14 205 0.0 0.0 0.00 0.00 0.00 71 1008.1
20260506094500 14 205 0.0 0.0 0.00 0.00 0.00 72 1008.3
20260506093001 14 205 0.0 0.0 0.00 0.00 0.00 71 1008.4
20260506091459 14 205 0.0 0.0 0.00 0.00 0.00 70 1008.4
20260506084501 15 205 0.0 4.8 0.00 0.00 0.00 66 1008.5
20260506083003 16 198 1.6 6.4 0.00 0.00 0.00 64 1008.5
20260506081502 16 198 0.0 8.0 0.00 0.00 0.00 61 1008.5
20260506072959 16 153 0.0 8.0 0.00 0.00 0.00 56 1008.5
20260506071502 17 153 1.6 9.7 0.00 0.00 0.00 55 1008.9
20260506061459 16 257 1.6 9.7 0.00 0.00 0.00 55 1009.3
20260506044504 12 166 0.0 11.3 0.00 0.00 0.00 73 1009.9
20260506043004 12 164 0.0 0.0 0.00 0.00 0.00 71 1010.0
20260506041502 13 164 0.0 8.0 0.00 0.00 0.00 73 1010.0
20260506040006 13 164 0.0 0.0 0.00 0.00 0.00 72 1010.1
20260506034502 13 164 0.0 0.0 0.00 0.00 0.00 71 1010.2
20260506031504 16 164 0.0 0.0 0.00 0.00 0.00 62 1009.9
20260506030005 16 164 0.0 3.2 0.00 0.00 0.00 55 1009.8
20260506024502 18 164 0.0 8.0 0.00 0.00 0.00 51 1009.8
20260506023003 18 181 0.0 4.8 0.00 0.00 0.00 49 1010.0
20260506021502 19 181 0.0 3.2 0.00 0.00 0.00 47 1010.0